TimeMST,TemperatureF,Dew PointF,Humidity,Sea Level PressureIn,VisibilityMPH,Wind Direction,Wind SpeedMPH,Gust SpeedMPH,PrecipitationIn,Events,Conditions,WindDirDegrees,DateUTC
12:53 AM,43.0,23.0,45,30.04,10.0,North,11.5,-,N/A,,Clear,10,2012-12-04 07:53:00
1:53 AM,46.9,21.9,37,30.05,10.0,WNW,6.9,-,N/A,,Clear,300,2012-12-04 08:53:00
2:53 AM,46.0,23.0,40,30.09,10.0,WNW,9.2,-,N/A,,Clear,300,2012-12-04 09:53:00
3:53 AM,46.0,24.1,42,30.12,10.0,NW,9.2,-,N/A,,Clear,310,2012-12-04 10:53:00
4:53 AM,46.9,25.0,42,30.17,10.0,NW,10.4,-,N/A,,Clear,310,2012-12-04 11:53:00
5:53 AM,45.0,26.1,48,30.21,10.0,NW,9.2,-,N/A,,Clear,310,2012-12-04 12:53:00
6:53 AM,44.1,27.0,51,30.26,10.0,NW,10.4,-,N/A,,Clear,310,2012-12-04 13:53:00
7:53 AM,48.0,28.0,46,30.29,10.0,NW,11.5,-,N/A,,Clear,320,2012-12-04 14:53:00
8:53 AM,52.0,28.9,41,30.31,10.0,WNW,9.2,-,N/A,,Clear,300,2012-12-04 15:53:00
9:53 AM,55.9,32.0,40,30.32,10.0,North,3.5,-,N/A,,Clear,10,2012-12-04 16:53:00
10:53 AM,57.0,32.0,39,30.31,10.0,Calm,Calm,-,N/A,,Clear,0,2012-12-04 17:53:00
11:53 AM,60.1,32.0,35,30.30,10.0,NNE,3.5,-,N/A,,Clear,30,2012-12-04 18:53:00
12:53 PM,61.0,32.0,34,30.28,10.0,North,5.8,-,N/A,,Clear,350,2012-12-04 19:53:00
1:53 PM,61.0,32.0,34,30.25,10.0,Calm,Calm,-,N/A,,Clear,0,2012-12-04 20:53:00
2:53 PM,62.1,32.0,32,30.25,10.0,Calm,Calm,-,N/A,,Clear,0,2012-12-04 21:53:00
3:53 PM,61.0,32.0,34,30.24,10.0,Calm,Calm,-,N/A,,Clear,0,2012-12-04 22:53:00
4:53 PM,57.9,32.0,37,30.24,10.0,Calm,Calm,-,N/A,,Clear,0,2012-12-04 23:53:00
5:53 PM,51.1,30.9,46,30.26,10.0,WSW,3.5,-,N/A,,Clear,250,2012-12-05 00:53:00
6:53 PM,46.9,30.0,52,30.27,10.0,WSW,6.9,-,N/A,,Clear,250,2012-12-05 01:53:00
7:53 PM,45.0,30.0,56,30.28,10.0,West,6.9,-,N/A,,Clear,260,2012-12-05 02:53:00
8:53 PM,43.0,30.0,60,30.27,10.0,WSW,4.6,-,N/A,,Clear,250,2012-12-05 03:53:00
9:53 PM,43.0,28.9,58,30.27,10.0,NNW,4.6,-,N/A,,Clear,330,2012-12-05 04:53:00
10:53 PM,43.0,28.9,58,30.26,10.0,Calm,Calm,-,N/A,,Clear,0,2012-12-05 05:53:00
11:53 PM,37.9,28.0,68,30.26,10.0,West,4.6,-,N/A,,Clear,280,2012-12-05 06:53:00